| time (UTC) | temp C | wind direction | speed KPH | gust KPH | rain 1hr cm | rain 24hr cm | rain mn cm | humidity % | barometer mb |
| 20260506024519 | 10 | 324 | 0.0 | 4.8 | 0.00 | 0.25 | 0.03 | 94 | 1010.4 |
| 20260506024018 | 10 | 324 | 0.0 | 4.8 | 0.00 | 0.25 | 0.03 | 94 | 1010.5 |
| 20260506023517 | 10 | 248 | 0.0 | 3.2 | 0.00 | 0.25 | 0.03 | 94 | 1010.6 |
| 20260506023018 | 10 | 246 | 0.0 | 3.2 | 0.00 | 0.25 | 0.03 | 94 | 1010.5 |
| 20260506022517 | 10 | 305 | 0.0 | 3.2 | 0.00 | 0.25 | 0.03 | 94 | 1010.6 |
| 20260506022017 | 10 | 305 | 0.0 | 6.4 | 0.00 | 0.25 | 0.03 | 94 | 1010.6 |
| 20260506021517 | 10 | 309 | 0.0 | 6.4 | 0.00 | 0.25 | 0.03 | 94 | 1010.6 |
| 20260506021017 | 10 | 323 | 1.6 | 6.4 | 0.00 | 0.25 | 0.03 | 94 | 1010.5 |
| 20260506020515 | 10 | 235 | 0.0 | 8.0 | 0.00 | 0.25 | 0.03 | 94 | 1010.6 |
| 20260506020020 | 10 | 315 | 3.2 | 8.0 | 0.00 | 0.25 | 0.03 | 94 | 1010.7 |
| 20260506015514 | 10 | 306 | 0.0 | 6.4 | 0.00 | 0.25 | 0.03 | 94 | 1010.8 |
| 20260506015014 | 10 | 266 | 0.0 | 3.2 | 0.00 | 0.25 | 0.03 | 94 | 1010.8 |
| 20260506014518 | 10 | 273 | 0.0 | 3.2 | 0.00 | 0.25 | 0.03 | 94 | 1010.8 |
| 20260506014013 | 10 | 285 | 0.0 | 3.2 | 0.00 | 0.25 | 0.03 | 94 | 1010.9 |
| 20260506013513 | 10 | 290 | 0.0 | 6.4 | 0.00 | 0.25 | 0.03 | 94 | 1010.9 |
| 20260506013023 | 10 | 312 | 1.6 | 6.4 | 0.00 | 0.25 | 0.03 | 94 | 1011.0 |
| 20260506012512 | 10 | 320 | 1.6 | 6.4 | 0.00 | 0.25 | 0.03 | 94 | 1011.1 |
| 20260506012012 | 10 | 315 | 1.6 | 6.4 | 0.00 | 0.25 | 0.03 | 94 | 1011.2 |
| 20260506011511 | 10 | 313 | 0.0 | 6.4 | 0.00 | 0.25 | 0.03 | 94 | 1011.3 |
| 20260506011010 | 10 | 316 | 1.6 | 6.4 | 0.00 | 0.25 | 0.03 | 94 | 1011.3 |
| 20260506010513 | 10 | 315 | 3.2 | 6.4 | 0.00 | 0.25 | 0.03 | 94 | 1011.3 |
| 20260506010010 | 10 | 304 | 0.0 | 4.8 | 0.00 | 0.25 | 0.03 | 94 | 1011.3 |
| 20260506005510 | 10 | 317 | 0.0 | 6.4 | 0.00 | 0.25 | 0.03 | 93 | 1011.4 |
| 20260506005015 | 10 | 262 | 1.6 | 4.8 | 0.00 | 0.25 | 0.03 | 93 | 1011.5 |
| 20260506004517 | 10 | 299 | 0.0 | 6.4 | 0.00 | 0.25 | 0.03 | 93 | 1011.4 |
| 20260506004008 | 10 | 311 | 1.6 | 6.4 | 0.00 | 0.25 | 0.03 | 93 | 1011.5 |
| 20260506003510 | 10 | 309 | 3.2 | 6.4 | 0.00 | 0.25 | 0.03 | 93 | 1011.4 |
| 20260506003008 | 10 | 247 | 0.0 | 3.2 | 0.00 | 0.25 | 0.03 | 93 | 1011.4 |
| 20260506002510 | 10 | 245 | 0.0 | 6.4 | 0.00 | 0.25 | 0.03 | 93 | 1011.4 |
| 20260506002007 | 10 | 302 | 0.0 | 6.4 | 0.00 | 0.25 | 0.03 | 93 | 1011.5 |
| 20260506001508 | 10 | 240 | 0.0 | 8.0 | 0.00 | 0.25 | 0.03 | 93 | 1011.5 |
| 20260506001006 | 10 | 320 | 1.6 | 8.0 | 0.00 | 0.25 | 0.03 | 93 | 1011.5 |
| 20260506000507 | 10 | 234 | 1.6 | 6.4 | 0.00 | 0.25 | 0.03 | 93 | 1011.7 |
| 20260506000014 | 10 | 219 | 0.0 | 6.4 | 0.00 | 0.25 | 0.03 | 93 | 1011.7 |
| 20260505235508 | 10 | 317 | 1.6 | 6.4 | 0.00 | 0.25 | 0.03 | 93 | 1011.7 |
| 20260505235003 | 10 | 325 | 1.6 | 4.8 | 0.00 | 0.25 | 0.03 | 93 | 1011.8 |
| 20260505234506 | 10 | 333 | 1.6 | 6.4 | 0.00 | 0.25 | 0.03 | 93 | 1011.8 |
| 20260505234002 | 10 | 322 | 1.6 | 8.0 | 0.00 | 0.25 | 0.03 | 93 | 1011.9 |
| 20260505233503 | 10 | 316 | 1.6 | 6.4 | 0.00 | 0.25 | 0.03 | 93 | 1012.0 |
| 20260505233001 | 10 | 314 | 3.2 | 8.0 | 0.00 | 0.25 | 0.03 | 93 | 1012.0 |
| 20260505232501 | 10 | 321 | 3.2 | 8.0 | 0.00 | 0.25 | 0.03 | 93 | 1012.0 |
| 20260505232002 | 10 | 321 | 1.6 | 6.4 | 0.00 | 0.25 | 0.03 | 93 | 1012.0 |
| 20260505231502 | 10 | 285 | 0.0 | 6.4 | 0.00 | 0.25 | 0.03 | 93 | 1012.0 |
| 20260505231001 | 10 | 289 | 1.6 | 8.0 | 0.00 | 0.25 | 0.03 | 93 | 1012.0 |
| 20260505230601 | 10 | 320 | 3.2 | 8.0 | 0.00 | 0.25 | 0.03 | 93 | 1012.1 |
| 20260505230118 | 10 | 319 | 1.6 | 6.4 | 0.03 | 0.25 | 0.03 | 93 | 1012.1 |
| 20260505225559 | 10 | 319 | 1.6 | 6.4 | 0.03 | 0.25 | 0.03 | 93 | 1012.2 |
| 20260505225100 | 10 | 317 | 1.6 | 4.8 | 0.03 | 0.25 | 0.03 | 93 | 1012.2 |
| 20260505224559 | 10 | 325 | 0.0 | 6.4 | 0.03 | 0.25 | 0.03 | 93 | 1012.2 |
| 20260505224059 | 10 | 312 | 1.6 | 6.4 | 0.03 | 0.25 | 0.03 | 92 | 1012.2 |
| 20260505223558 | 10 | 238 | 0.0 | 3.2 | 0.03 | 0.25 | 0.03 | 93 | 1012.3 |
| 20260505223101 | 10 | 238 | 0.0 | 4.8 | 0.03 | 0.25 | 0.03 | 92 | 1012.1 |
| 20260505222558 | 10 | 319 | 1.6 | 8.0 | 0.03 | 0.25 | 0.03 | 92 | 1012.2 |
| 20260505222057 | 10 | 321 | 4.8 | 8.0 | 0.03 | 0.25 | 0.03 | 92 | 1012.2 |
| 20260505221600 | 10 | 312 | 1.6 | 8.0 | 0.03 | 0.25 | 0.03 | 92 | 1012.1 |
| 20260505221056 | 10 | 324 | 1.6 | 8.0 | 0.03 | 0.25 | 0.03 | 92 | 1012.2 |
| 20260505220557 | 10 | 325 | 0.0 | 6.4 | 0.03 | 0.25 | 0.03 | 92 | 1012.2 |
| 20260505220056 | 10 | 275 | 0.0 | 3.2 | 0.00 | 0.23 | 0.23 | 92 | 1012.2 |
| 20260505215554 | 10 | 284 | 0.0 | 3.2 | 0.00 | 0.23 | 0.23 | 92 | 1012.1 |
| 20260505215054 | 11 | 287 | 0.0 | 4.8 | 0.00 | 0.23 | 0.23 | 92 | 1012.2 |
| 20260505214605 | 11 | 302 | 0.0 | 6.4 | 0.00 | 0.23 | 0.23 | 92 | 1012.3 |
| 20260505214054 | 11 | 313 | 1.6 | 6.4 | 0.00 | 0.23 | 0.23 | 92 | 1012.3 |
| 20260505213553 | 11 | 301 | 1.6 | 6.4 | 0.00 | 0.23 | 0.23 | 91 | 1012.2 |
| 20260505213058 | 11 | 284 | 0.0 | 3.2 | 0.00 | 0.23 | 0.23 | 91 | 1012.3 |
| 20260505212552 | 11 | 313 | 0.0 | 4.8 | 0.00 | 0.23 | 0.23 | 91 | 1012.4 |
| 20260505212051 | 11 | 313 | 1.6 | 4.8 | 0.00 | 0.23 | 0.23 | 91 | 1012.4 |
| 20260505211557 | 11 | 310 | 0.0 | 0.0 | 0.00 | 0.23 | 0.23 | 91 | 1012.4 |
| 20260505211051 | 11 | 319 | 0.0 | 0.0 | 0.00 | 0.23 | 0.23 | 91 | 1012.5 |
| 20260505210551 | 11 | 319 | 0.0 | 0.0 | 0.00 | 0.23 | 0.23 | 91 | 1012.5 |
| 20260505210053 | 11 | 319 | 0.0 | 3.2 | 0.00 | 0.23 | 0.23 | 91 | 1012.3 |
| 20260505205551 | 11 | 319 | 0.0 | 4.8 | 0.00 | 0.23 | 0.23 | 91 | 1012.4 |
| 20260505205049 | 11 | 319 | 3.2 | 4.8 | 0.00 | 0.23 | 0.23 | 91 | 1012.4 |
| 20260505204550 | 11 | 316 | 0.0 | 4.8 | 0.00 | 0.23 | 0.23 | 90 | 1012.4 |
| 20260505204049 | 11 | 316 | 0.0 | 1.6 | 0.00 | 0.23 | 0.23 | 90 | 1012.4 |
| 20260505203549 | 11 | 316 | 0.0 | 3.2 | 0.00 | 0.23 | 0.23 | 90 | 1012.6 |
| 20260505203051 | 11 | 316 | 0.0 | 3.2 | 0.00 | 0.23 | 0.23 | 90 | 1012.5 |
| 20260505202550 | 12 | 316 | 0.0 | 1.6 | 0.00 | 0.23 | 0.23 | 90 | 1012.5 |
| 20260505202054 | 12 | 316 | 0.0 | 1.6 | 0.00 | 0.23 | 0.23 | 90 | 1012.4 |
| 20260505201554 | 12 | 316 | 0.0 | 6.4 | 0.00 | 0.23 | 0.23 | 90 | 1012.2 |
| 20260505201049 | 12 | 360 | 1.6 | 4.8 | 0.00 | 0.23 | 0.23 | 90 | 1012.1 |
| 20260505200549 | 12 | 39 | 0.0 | 0.0 | 0.00 | 0.23 | 0.23 | 89 | 1012.1 |
| 20260505200048 | 12 | 39 | 0.0 | 0.0 | 0.00 | 0.23 | 0.23 | 89 | 1012.1 |
| 20260505195548 | 12 | 39 | 0.0 | 0.0 | 0.00 | 0.23 | 0.23 | 89 | 1012.1 |
| 20260505195051 | 12 | 39 | 0.0 | 0.0 | 0.00 | 0.23 | 0.23 | 89 | 1012.0 |
| 20260505194548 | 12 | 39 | 0.0 | 0.0 | 0.00 | 0.23 | 0.23 | 89 | 1011.8 |
| 20260505194048 | 12 | 39 | 0.0 | 0.0 | 0.00 | 0.23 | 0.23 | 88 | 1011.8 |
| 20260505193550 | 12 | 39 | 0.0 | 0.0 | 0.00 | 0.23 | 0.23 | 88 | 1011.8 |
| 20260505193050 | 12 | 39 | 0.0 | 0.0 | 0.00 | 0.23 | 0.23 | 88 | 1011.8 |
| 20260505192551 | 12 | 39 | 0.0 | 0.0 | 0.00 | 0.23 | 0.23 | 87 | 1011.7 |
| 20260505192048 | 12 | 39 | 0.0 | 0.0 | 0.00 | 0.23 | 0.23 | 87 | 1011.7 |
| 20260505191555 | 13 | 39 | 0.0 | 0.0 | 0.00 | 0.23 | 0.23 | 87 | 1011.6 |
| 20260505191050 | 13 | 39 | 0.0 | 0.0 | 0.00 | 0.23 | 0.23 | 87 | 1011.8 |
| 20260505190548 | 13 | 39 | 0.0 | 0.0 | 0.00 | 0.23 | 0.23 | 87 | 1011.6 |
| 20260505185546 | 13 | 39 | 0.0 | 0.0 | 0.00 | 0.23 | 0.23 | 86 | 1011.5 |
| 20260505185046 | 13 | 39 | 0.0 | 0.0 | 0.03 | 0.23 | 0.23 | 86 | 1011.5 |
| 20260505184559 | 13 | 39 | 0.0 | 0.0 | 0.03 | 0.23 | 0.23 | 86 | 1011.5 |
| 20260505184046 | 14 | 39 | 0.0 | 0.0 | 0.03 | 0.23 | 0.23 | 86 | 1011.3 |
| 20260505183548 | 14 | 39 | 0.0 | 0.0 | 0.05 | 0.23 | 0.23 | 86 | 1011.3 |
| 20260505183051 | 14 | 39 | 0.0 | 0.0 | 0.20 | 0.23 | 0.23 | 86 | 1011.3 |
| 20260505182546 | 14 | 39 | 0.0 | 0.0 | 0.20 | 0.23 | 0.23 | 85 | 1011.2 |
| 20260505182046 | 14 | 39 | 0.0 | 0.0 | 0.20 | 0.23 | 0.23 | 85 | 1011.0 |
| 20260505181546 | 14 | 39 | 0.0 | 0.0 | 0.20 | 0.23 | 0.23 | 84 | 1011.0 |
| 20260505181048 | 15 | 39 | 0.0 | 0.0 | 0.20 | 0.23 | 0.23 | 84 | 1010.9 |
| 20260505180545 | 15 | 39 | 0.0 | 0.0 | 0.20 | 0.23 | 0.23 | 83 | 1011.1 |
| 20260505180049 | 15 | 39 | 0.0 | 0.0 | 0.20 | 0.25 | 0.23 | 82 | 1011.2 |
| 20260505175545 | 15 | 39 | 0.0 | 3.2 | 0.20 | 0.25 | 0.23 | 82 | 1011.3 |
| 20260505175045 | 15 | 39 | 0.0 | 4.8 | 0.18 | 0.23 | 0.20 | 82 | 1011.4 |
| 20260505174545 | 15 | 39 | 1.6 | 9.7 | 0.18 | 0.23 | 0.20 | 82 | 1011.4 |
| 20260505174045 | 16 | 313 | 1.6 | 16.1 | 0.15 | 0.20 | 0.18 | 82 | 1011.4 |
| 20260505173545 | 16 | 333 | 1.6 | 16.1 | 0.15 | 0.20 | 0.18 | 80 | 1011.4 |
| 20260505173045 | 16 | 165 | 1.6 | 8.0 | 0.00 | 0.05 | 0.03 | 78 | 1011.1 |
| 20260505172543 | 16 | 112 | 1.6 | 6.4 | 0.00 | 0.05 | 0.03 | 78 | 1010.4 |
| 20260505172043 | 16 | 76 | 1.6 | 6.4 | 0.00 | 0.05 | 0.03 | 78 | 1010.5 |
| 20260505171544 | 16 | 76 | 1.6 | 4.8 | 0.00 | 0.05 | 0.03 | 77 | 1010.6 |
| 20260505171043 | 16 | 143 | 0.0 | 3.2 | 0.00 | 0.05 | 0.03 | 77 | 1010.6 |
| 20260505170542 | 16 | 27 | 0.0 | 4.8 | 0.00 | 0.05 | 0.03 | 76 | 1010.6 |
| 20260505170043 | 16 | 27 | 1.6 | 6.4 | 0.00 | 0.10 | 0.03 | 76 | 1010.6 |
| 20260505165542 | 16 | 302 | 1.6 | 9.7 | 0.00 | 0.10 | 0.03 | 75 | 1010.6 |
| 20260505165042 | 17 | 84 | 4.8 | 9.7 | 0.00 | 0.10 | 0.03 | 74 | 1010.6 |
| 20260505164542 | 17 | 77 | 3.2 | 8.0 | 0.00 | 0.10 | 0.03 | 73 | 1010.5 |
| 20260505164042 | 17 | 69 | 0.0 | 3.2 | 0.00 | 0.10 | 0.03 | 73 | 1010.5 |
| 20260505163544 | 17 | 69 | 0.0 | 8.0 | 0.00 | 0.10 | 0.03 | 73 | 1010.6 |
| 20260505163042 | 17 | 69 | 1.6 | 8.0 | 0.00 | 0.10 | 0.03 | 73 | 1010.5 |
| 20260505162541 | 17 | 57 | 1.6 | 6.4 | 0.00 | 0.10 | 0.03 | 74 | 1010.5 |
| 20260505162041 | 17 | 40 | 0.0 | 1.6 | 0.00 | 0.10 | 0.03 | 75 | 1010.7 |
| 20260505161541 | 17 | 40 | 0.0 | 3.2 | 0.00 | 0.10 | 0.03 | 76 | 1010.6 |
| 20260505161041 | 17 | 40 | 0.0 | 4.8 | 0.00 | 0.10 | 0.03 | 76 | 1010.7 |
| 20260505160545 | 16 | 40 | 1.6 | 4.8 | 0.00 | 0.10 | 0.03 | 76 | 1010.7 |
| 20260505153042 | 16 | 325 | 0.0 | 6.4 | 0.00 | 0.15 | 0.03 | 78 | 1010.7 |
| 20260505152539 | 16 | 332 | 3.2 | 9.7 | 0.00 | 0.15 | 0.03 | 77 | 1010.8 |
| 20260505152041 | 16 | 24 | 0.0 | 4.8 | 0.00 | 0.15 | 0.03 | 78 | 1010.8 |
| 20260505151539 | 16 | 25 | 0.0 | 3.2 | 0.00 | 0.15 | 0.03 | 78 | 1010.8 |
| 20260505151039 | 16 | 25 | 0.0 | 3.2 | 0.00 | 0.15 | 0.03 | 78 | 1010.9 |
| 20260505150539 | 16 | 25 | 0.0 | 3.2 | 0.00 | 0.15 | 0.03 | 79 | 1010.8 |
| 20260505140537 | 18 | 225 | 3.2 | 16.1 | 0.00 | 0.15 | 0.03 | 70 | 1010.5 |
| 20260505125026 | 18 | 186 | 0.0 | 4.8 | 0.00 | 0.15 | 0.03 | 69 | 1010.4 |
| 20260505124525 | 18 | 186 | 0.0 | 4.8 | 0.00 | 0.15 | 0.03 | 69 | 1010.4 |
| 20260505124024 | 18 | 186 | 0.0 | 4.8 | 0.00 | 0.15 | 0.03 | 69 | 1010.5 |
| 20260505123524 | 18 | 186 | 0.0 | 4.8 | 0.00 | 0.15 | 0.03 | 71 | 1010.6 |
| 20260505123036 | 18 | 186 | 0.0 | 8.0 | 0.00 | 0.15 | 0.03 | 71 | 1010.6 |
| 20260505122522 | 18 | 186 | 1.6 | 8.0 | 0.00 | 0.15 | 0.03 | 70 | 1010.7 |
| 20260505122020 | 17 | 186 | 1.6 | 4.8 | 0.00 | 0.15 | 0.03 | 73 | 1010.7 |
| 20260505121524 | 17 | 186 | 0.0 | 4.8 | 0.00 | 0.15 | 0.03 | 74 | 1010.7 |
| 20260505121019 | 17 | 186 | 0.0 | 3.2 | 0.00 | 0.15 | 0.03 | 75 | 1010.8 |
| 20260505120518 | 17 | 186 | 0.0 | 4.8 | 0.00 | 0.15 | 0.03 | 73 | 1010.8 |
| 20260505120023 | 17 | 186 | 1.6 | 6.4 | 0.00 | 0.15 | 0.03 | 74 | 1010.8 |
| 20260505115518 | 17 | 186 | 1.6 | 6.4 | 0.00 | 0.15 | 0.03 | 77 | 1010.8 |
| 20260505115016 | 16 | 185 | 1.6 | 8.0 | 0.00 | 0.15 | 0.03 | 77 | 1010.9 |
| 20260505114515 | 16 | 306 | 3.2 | 8.0 | 0.00 | 0.15 | 0.03 | 76 | 1011.0 |
| 20260505114014 | 16 | 194 | 0.0 | 6.4 | 0.00 | 0.15 | 0.03 | 81 | 1011.0 |
| 20260505113512 | 16 | 193 | 0.0 | 4.8 | 0.00 | 0.15 | 0.03 | 81 | 1011.1 |
| 20260505113011 | 16 | 193 | 0.0 | 3.2 | 0.00 | 0.15 | 0.03 | 81 | 1011.2 |
| 20260505112510 | 15 | 193 | 0.0 | 3.2 | 0.00 | 0.15 | 0.03 | 79 | 1011.4 |
| 20260505112010 | 15 | 193 | 0.0 | 3.2 | 0.00 | 0.15 | 0.03 | 82 | 1011.5 |
| 20260505111515 | 15 | 193 | 0.0 | 3.2 | 0.00 | 0.15 | 0.03 | 81 | 1011.6 |
| 20260505111008 | 15 | 193 | 0.0 | 3.2 | 0.00 | 0.15 | 0.03 | 81 | 1011.5 |
| 20260505110507 | 15 | 193 | 0.0 | 3.2 | 0.00 | 0.15 | 0.03 | 81 | 1011.7 |
| 20260505102004 | 15 | 193 | 0.0 | 3.2 | 0.00 | 0.15 | 0.03 | 82 | 1011.8 |
| 20260505101503 | 15 | 193 | 0.0 | 3.2 | 0.00 | 0.15 | 0.03 | 83 | 1011.8 |
| 20260505101003 | 15 | 193 | 0.0 | 3.2 | 0.00 | 0.15 | 0.03 | 83 | 1011.7 |
| 20260505100501 | 15 | 193 | 0.0 | 3.2 | 0.00 | 0.15 | 0.03 | 84 | 1011.8 |
| 20260505100110 | 15 | 193 | 0.0 | 3.2 | 0.00 | 0.15 | 0.03 | 84 | 1011.7 |
| 20260505095559 | 14 | 193 | 0.0 | 4.8 | 0.00 | 0.15 | 0.03 | 85 | 1011.8 |
| 20260505095059 | 14 | 193 | 0.0 | 4.8 | 0.00 | 0.15 | 0.03 | 85 | 1011.8 |
| 20260505094607 | 14 | 193 | 0.0 | 6.4 | 0.00 | 0.15 | 0.03 | 85 | 1011.7 |
| 20260505094056 | 14 | 193 | 0.0 | 3.2 | 0.00 | 0.15 | 0.03 | 86 | 1011.7 |
| 20260505093600 | 14 | 193 | 0.0 | 3.2 | 0.00 | 0.15 | 0.03 | 86 | 1011.7 |
| 20260505093056 | 13 | 193 | 0.0 | 3.2 | 0.00 | 0.15 | 0.03 | 86 | 1011.8 |
| 20260505092559 | 13 | 193 | 0.0 | 3.2 | 0.00 | 0.15 | 0.03 | 86 | 1011.8 |
| 20260505092053 | 13 | 284 | 0.0 | 0.0 | 0.00 | 0.15 | 0.03 | 87 | 1011.7 |
| 20260505091553 | 13 | 284 | 0.0 | 0.0 | 0.00 | 0.15 | 0.03 | 87 | 1011.7 |
| 20260505091051 | 13 | 284 | 0.0 | 0.0 | 0.00 | 0.15 | 0.03 | 88 | 1011.7 |
| 20260505090551 | 13 | 284 | 0.0 | 3.2 | 0.00 | 0.15 | 0.03 | 88 | 1011.8 |
| 20260505090105 | 13 | 284 | 0.0 | 3.2 | 0.00 | 0.15 | 0.03 | 89 | 1011.8 |
| 20260505085550 | 13 | 303 | 0.0 | 0.0 | 0.00 | 0.15 | 0.03 | 89 | 1011.7 |
| 20260505085053 | 13 | 303 | 0.0 | 0.0 | 0.00 | 0.15 | 0.03 | 89 | 1011.6 |
| 20260505084549 | 13 | 303 | 0.0 | 0.0 | 0.00 | 0.15 | 0.03 | 90 | 1011.6 |
| 20260505084048 | 13 | 303 | 0.0 | 0.0 | 0.03 | 0.15 | 0.03 | 90 | 1011.8 |
| 20260505083548 | 13 | 306 | 0.0 | 0.0 | 0.03 | 0.15 | 0.03 | 90 | 1011.8 |
| 20260505083048 | 13 | 306 | 0.0 | 0.0 | 0.03 | 0.15 | 0.03 | 90 | 1011.8 |
| 20260505082548 | 13 | 307 | 0.0 | 0.0 | 0.03 | 0.15 | 0.03 | 90 | 1011.9 |
| 20260505082046 | 13 | 307 | 0.0 | 0.0 | 0.03 | 0.15 | 0.03 | 90 | 1012.0 |
| 20260505081549 | 13 | 307 | 0.0 | 0.0 | 0.03 | 0.15 | 0.03 | 90 | 1012.1 |
| 20260505081046 | 13 | 307 | 0.0 | 0.0 | 0.03 | 0.15 | 0.03 | 90 | 1012.2 |
| 20260505080544 | 13 | 307 | 0.0 | 0.0 | 0.03 | 0.15 | 0.03 | 91 | 1012.3 |
| 20260505080051 | 13 | 307 | 0.0 | 0.0 | 0.03 | 0.15 | 0.03 | 91 | 1012.3 |
| 20260505075541 | 13 | 307 | 0.0 | 0.0 | 0.03 | 0.15 | 0.03 | 91 | 1012.4 |
| 20260505075040 | 12 | 307 | 0.0 | 0.0 | 0.03 | 0.15 | 0.03 | 91 | 1012.4 |
| 20260505074540 | 12 | 307 | 0.0 | 0.0 | 0.03 | 0.15 | 0.03 | 91 | 1012.4 |
| 20260505074042 | 12 | 307 | 0.0 | 0.0 | 0.00 | 0.13 | 0.00 | 91 | 1012.5 |
| 20260505073541 | 12 | 307 | 0.0 | 0.0 | 0.00 | 0.13 | 0.00 | 91 | 1012.6 |
| 20260505073051 | 12 | 307 | 0.0 | 0.0 | 0.00 | 0.13 | 0.00 | 91 | 1012.6 |
| 20260505072540 | 12 | 307 | 0.0 | 0.0 | 0.00 | 0.13 | 0.00 | 92 | 1012.6 |
| 20260505072037 | 12 | 307 | 0.0 | 0.0 | 0.00 | 0.13 | 0.00 | 92 | 1012.6 |
| 20260505071537 | 12 | 307 | 0.0 | 0.0 | 0.00 | 0.13 | 0.00 | 92 | 1012.6 |
| 20260505071037 | 12 | 307 | 0.0 | 0.0 | 0.00 | 0.13 | 0.00 | 92 | 1012.6 |
| 20260505070537 | 12 | 307 | 0.0 | 0.0 | 0.00 | 0.13 | 0.00 | 92 | 1012.6 |
| 20260505070040 | 12 | 307 | 0.0 | 0.0 | 0.00 | 0.13 | 0.00 | 92 | 1012.7 |
| 20260505065535 | 12 | 307 | 0.0 | 0.0 | 0.00 | 0.13 | 0.00 | 92 | 1012.6 |
| 20260505065036 | 12 | 307 | 0.0 | 0.0 | 0.00 | 0.13 | 0.00 | 92 | 1012.6 |
| 20260505064535 | 12 | 307 | 0.0 | 0.0 | 0.00 | 0.13 | 0.00 | 92 | 1012.6 |
| 20260505064035 | 12 | 307 | 0.0 | 0.0 | 0.00 | 0.13 | 0.00 | 92 | 1012.8 |
| 20260505063535 | 12 | 307 | 0.0 | 0.0 | 0.00 | 0.13 | 0.00 | 92 | 1012.8 |
| 20260505063036 | 12 | 307 | 0.0 | 0.0 | 0.00 | 0.13 | 0.00 | 92 | 1012.8 |
| 20260505062535 | 12 | 307 | 0.0 | 0.0 | 0.00 | 0.13 | 0.00 | 92 | 1012.8 |
| 20260505062034 | 11 | 306 | 0.0 | 0.0 | 0.00 | 0.13 | 0.00 | 92 | 1012.9 |
| 20260505061535 | 11 | 306 | 0.0 | 0.0 | 0.00 | 0.13 | 0.00 | 92 | 1013.0 |
| 20260505061033 | 11 | 306 | 0.0 | 0.0 | 0.00 | 0.13 | 0.00 | 92 | 1013.1 |
| 20260505060532 | 11 | 306 | 0.0 | 0.0 | 0.00 | 0.13 | 0.00 | 92 | 1013.0 |
| 20260505060035 | 11 | 306 | 0.0 | 0.0 | 0.00 | 0.13 | 0.00 | 92 | 1013.0 |
| 20260505055532 | 11 | 306 | 0.0 | 0.0 | 0.00 | 0.13 | 0.00 | 92 | 1013.0 |
| 20260505055032 | 11 | 306 | 0.0 | 0.0 | 0.00 | 0.13 | 0.00 | 92 | 1013.0 |
| 20260505054533 | 11 | 306 | 0.0 | 0.0 | 0.00 | 0.13 | 0.00 | 92 | 1013.0 |
| 20260505054031 | 11 | 306 | 0.0 | 0.0 | 0.00 | 0.13 | 0.00 | 92 | 1013.0 |
| 20260505053531 | 11 | 306 | 0.0 | 0.0 | 0.00 | 0.13 | 0.00 | 92 | 1012.9 |
| 20260505053031 | 11 | 306 | 0.0 | 0.0 | 0.00 | 0.13 | 0.00 | 92 | 1012.8 |
| 20260505052532 | 11 | 306 | 0.0 | 0.0 | 0.00 | 0.13 | 0.00 | 92 | 1012.9 |
| 20260505052029 | 11 | 306 | 0.0 | 0.0 | 0.00 | 0.13 | 0.00 | 92 | 1012.9 |
| 20260505051528 | 11 | 306 | 0.0 | 0.0 | 0.00 | 0.13 | 0.00 | 92 | 1012.9 |
| 20260505051028 | 11 | 306 | 0.0 | 0.0 | 0.00 | 0.13 | 0.00 | 92 | 1012.9 |
| 20260505050528 | 11 | 309 | 0.0 | 0.0 | 0.00 | 0.13 | 0.00 | 92 | 1012.8 |
| 20260505050130 | 11 | 309 | 0.0 | 0.0 | 0.00 | 0.13 | 0.00 | 92 | 1012.8 |
| 20260505041540 | 11 | 312 | 0.0 | 3.2 | 0.00 | 0.13 | 0.00 | 92 | 1012.7 |
| 20260505041024 | 11 | 312 | 0.0 | 4.8 | 0.00 | 0.13 | 0.00 | 92 | 1012.6 |
| 20260505040525 | 11 | 312 | 0.0 | 4.8 | 0.00 | 0.13 | 0.00 | 92 | 1012.6 |
| 20260505040024 | 11 | 313 | 0.0 | 1.6 | 0.00 | 0.13 | 0.00 | 92 | 1012.6 |
| 20260505035522 | 11 | 313 | 0.0 | 3.2 | 0.00 | 0.13 | 0.00 | 92 | 1012.6 |
| 20260505035023 | 11 | 313 | 0.0 | 3.2 | 0.00 | 0.13 | 0.00 | 92 | 1012.7 |
| 20260505034522 | 11 | 313 | 0.0 | 3.2 | 0.00 | 0.13 | 0.00 | 92 | 1012.7 |
| 20260505034026 | 11 | 313 | 0.0 | 3.2 | 0.00 | 0.13 | 0.00 | 92 | 1012.7 |
| 20260505033521 | 11 | 313 | 0.0 | 3.2 | 0.00 | 0.13 | 0.00 | 92 | 1012.8 |
| 20260505033021 | 11 | 313 | 0.0 | 3.2 | 0.00 | 0.13 | 0.00 | 92 | 1013.0 |
| 20260505032523 | 11 | 313 | 0.0 | 4.8 | 0.00 | 0.13 | 0.00 | 92 | 1013.0 |
| 20260505032020 | 11 | 313 | 1.6 | 4.8 | 0.00 | 0.13 | 0.00 | 92 | 1013.0 |
| 20260505031520 | 11 | 322 | 0.0 | 6.4 | 0.00 | 0.13 | 0.00 | 92 | 1013.0 |
| 20260505031020 | 11 | 322 | 0.0 | 6.4 | 0.00 | 0.13 | 0.00 | 92 | 1012.9 |
| 20260505030520 | 11 | 321 | 1.6 | 6.4 | 0.00 | 0.13 | 0.00 | 92 | 1012.9 |
| 20260505030121 | 11 | 314 | 0.0 | 6.4 | 0.00 | 0.13 | 0.00 | 92 | 1012.9 |
| 20260505025519 | 11 | 321 | 1.6 | 4.8 | 0.00 | 0.13 | 0.00 | 92 | 1012.8 |
| 20260505025020 | 11 | 310 | 0.0 | 6.4 | 0.00 | 0.13 | 0.00 | 92 | 1013.0 |